Starlink 5163

operational
NORAD ID: 54054 Int'l Des: 2022-136 Owner: SPXS Country: US Constellation: starlink
LEOCIRCULAR

关于 Starlink 5163

正在加载描述...

实时位置

正在加载3D地球...

即将过境

高度历史

Altitude vs Time

uPlot chart will show altitude changes over time

两行轨道根数

1 54054U 22136D 26034.58589159 -.00000698 00000-0 -25799-4 0 9998
2 54054 53.2165 137.3442 0001225 72.4032 287.7094 15.08835871181692
Epoch: Feb 3, 2026 • Age: 10 hours

当前状态

高度 545.2 km
速度 7.60 km/s
星下点 51.80°N, 73.03°E
发射日期 Oct 20, 2022
运行时间 3.2 years
类型 internet

技术详情

分类 Payload
质量 305.00 kg
干质量 290.00 kg
总质量 305.00 kg
长度 0.20 m
直径 2.80 m
跨度 9.00 m
形状 Box + pan
制造商 SPXS
平台类型 Starlink
阶段状态 In Orbit
所有者/国家 SPXS/US

大型星座

Loading constellations...